This demonstration page uses our WeatherBlox Daily Observations layout. Learn more.

Hourly Observations for June 1, 2020

Temp ( °F °C ) Dew Point ( °F °C ) Humidity (%) Winds ( mph kmh ) Pressure ( in mb ) Visibility ( mi km ) Precip ( " mm )
12:15 am 00:15 Clear 74 23.5 57 13.7 54 54 S 20 31 29.81 1010 10 16.0934 0 0
12:35 am 00:35 Clear 74 23.5 56 13.5 54 54 S 21 33 29.81 1010 10 16.0934 0 0
12:55 am 00:55 Clear 74 23.5 56 13.3 53 53 S 24 39 29.81 1010 10 16.0934 0 0
1:15 am 01:15 Clear 74 23.3 56 13.2 53 53 S 23 37 29.81 1010 10 16.0934 0 0
1:35 am 01:35 Clear 74 23.1 56 13.1 53 53 SSW 25 41 29.82 1010 10 16.0934 0 0
1:55 am 01:55 Clear 73 23 55 13 53 53 SSW 24 39 29.82 1010 10 16.0934 0 0
2:15 am 02:15 Clear 73 23 55 12.6 52 52 SSW 29 46 29.81 1009 10 16.0934 0 0
2:35 am 02:35 Clear 73 22.7 55 12.5 53 53 SSW 26 43 29.81 1009 10 16.0934 0 0
2:55 am 02:55 Clear 73 22.6 54 12.3 52 52 SSW 23 37 29.82 1010 10 16.0934 0 0
3:15 am 03:15 Clear 72 22.4 54 12.3 53 53 SSW 23 37 29.81 1010 10 16.0934 0 0
3:35 am 03:35 Clear 72 22 54 12.2 54 54 SSW 22 35 29.82 1010 10 16.0934 0 0
3:55 am 03:55 Clear 71 21.7 54 12.1 55 55 SSW 21 33 29.82 1010 10 16.0934 0 0
4:15 am 04:15 Clear 70 21.3 54 12 56 56 SSW 18 30 29.82 1010 10 16.0934 0 0
4:35 am 04:35 Clear 70 21.1 53 11.9 56 56 SSW 16 26 29.82 1010 10 16.0934 0 0
4:55 am 04:55 Clear 70 21.2 53 11.7 55 55 SSW 16 26 29.82 1010 10 16.0934 0 0
5:15 am 05:15 Clear 70 21.2 53 11.6 54 54 S 15 24 29.82 1010 10 16.0934 0 0
5:35 am 05:35 Partly Cloudy 70 20.9 53 11.5 55 55 S 13 20 29.83 1010 10 16.0934 0 0
5:55 am 05:55 Clear 68 20.2 53 11.7 58 58 Calm 29.86 1011 10 16.0934 0 0
6:15 am 06:15 Sunny 69 20.6 53 11.4 56 56 SW 7 11 29.86 1011 10 16.0934 0 0
6:35 am 06:35 Sunny 68 20.2 53 11.8 59 59 SW 7 11 29.87 1012 10 16.0934 0 0
6:55 am 06:55 Sunny 69 20.6 53 11.7 57 57 SSW 8 13 29.87 1011 10 16.0934 0 0
7:15 am 07:15 Sunny 68 20 53 11.8 59 59 SSW 5 7 29.87 1012 10 16.0934 0 0
7:35 am 07:35 Sunny 67 19.7 55 12.5 63 63 S 8 13 29.87 1012 10 16.0934 0 0
7:55 am 07:55 Sunny 68 20.2 55 12.5 61 61 S 12 19 29.87 1012 10 16.0934 0 0
8:15 am 08:15 Sunny 69 20.6 54 12.4 60 60 S 13 20 29.87 1011 10 16.0934 0 0
8:35 am 08:35 Sunny 70 21.1 55 12.5 58 58 SSW 14 22 29.86 1011 10 16.0934 0 0
8:55 am 08:55 Sunny 71 21.7 55 12.6 56 56 SSW 12 19 29.87 1011 10 16.0934 0 0
9:15 am 09:15 Partly Cloudy 73 22.6 56 13.2 55 55 SSW 12 19 29.86 1011 10 16.0934 0 0
9:35 am 09:35 Partly Cloudy 70 20.9 57 13.9 64 64 SSW 9 15 29.86 1011 7 11.26538 0 0
9:55 am 09:55 Sunny 70 21 56 13.6 63 63 SSW 12 19 29.86 1011 10 16.0934 0 0
10:15 am 10:15 Sunny 76 24.5 57 14.1 52 52 SW 14 22 29.83 1010 10 16.0934 0 0
10:35 am 10:35 Sunny 77 25.1 58 14.6 52 52 SSW 12 19 29.82 1010 10 16.0934 0 0
10:55 am 10:55 Sunny 78 25.5 58 14.6 51 51 SSW 13 20 29.82 1010 10 16.0934 0 0
11:15 am 11:15 Sunny 79 26.1 59 15 50 50 SSW 12 19 29.81 1010 10 16.0934 0 0
11:35 am 11:35 Sunny 80 26.5 60 15.7 52 52 SSW 13 20 29.81 1009 10 16.0934 0 0
11:55 am 11:55 Sunny 81 27 61 16.2 52 52 SSW 12 19 29.79 1009 10 16.0934 0 0
12:15 pm 12:15 Sunny 81 27.4 61 16.1 50 50 S 12 19 29.79 1009 10 16.0934 0 0
12:35 pm 12:35 Sunny 83 28.5 61 16 47 47 S 12 19 29.77 1008 10 16.0934 0 0
12:55 pm 12:55 Sunny 85 29.2 60 15.8 44 44 SSW 14 22 29.78 1008 10 16.0934 0 0
1:15 pm 13:15 Sunny 86 30.1 60 15.8 42 42 SSW 13 20 29.76 1008 10 16.0934 0 0
1:35 pm 13:35 Sunny 87 30.6 62 16.4 42 42 SSW 13 20 29.75 1008 10 16.0934 0 0
1:55 pm 13:55 Sunny 88 31.2 62 16.5 41 41 S 13 20 29.74 1007 10 16.0934 0 0
2:15 pm 14:15 Sunny 89 31.7 62 16.5 40 40 SSW 13 20 29.73 1007 10 16.0934 0 0
2:35 pm 14:35 Sunny 90 32.1 61 16 38 38 SSW 15 24 29.71 1006 10 16.0934 0 0
2:55 pm 14:55 Sunny 91 32.6 59 15.2 35 35 SW 17 28 29.71 1006 10 16.0934 0 0
3:15 pm 15:15 Sunny 91 33 60 15.6 35 35 SSW 14 22 29.71 1006 10 16.0934 0 0
3:35 pm 15:35 Sunny 92 33.4 60 15.6 34 34 SSW 14 22 29.7 1006 10 16.0934 0 0
3:55 pm 15:55 Sunny 92 33.5 59 15.2 33 33 SSW 14 22 29.69 1005 10 16.0934 0 0
4:15 pm 16:15 Sunny 93 33.7 60 15.8 34 34 SSW 14 22 29.69 1005 10 16.0934 0 0
4:35 pm 16:35 Sunny 93 33.7 60 15.5 33 33 SSW 14 22 29.68 1005 10 16.0934 0 0
4:55 pm 16:55 Sunny 94 34.2 59 14.9 31 31 SSW 14 22 29.68 1005 10 16.0934 0 0
5:15 pm 17:15 Sunny 93 34.1 60 15.4 33 33 S 13 20 29.67 1005 10 16.0934 0 0
5:35 pm 17:35 Sunny 93 33.8 61 16.2 35 35 S 16 26 29.67 1005 10 16.0934 0 0
5:55 pm 17:55 Sunny 92 33.2 63 17 38 38 S 14 22 29.66 1005 10 16.0934 0 0
6:15 pm 18:15 Sunny 92 33.4 60 15.8 35 35 S 16 26 29.66 1005 10 16.0934 0 0
6:35 pm 18:35 Sunny 91 33 59 15.1 34 34 S 15 24 29.67 1005 10 16.0934 0 0
6:55 pm 18:55 Sunny 91 32.5 59 15 35 35 S 18 30 29.66 1004 10 16.0934 0 0
7:15 pm 19:15 Sunny 89 31.8 60 15.6 38 38 S 13 20 29.67 1005 10 16.0934 0 0
7:35 pm 19:35 Sunny 89 31.5 58 14.4 35 35 S 18 30 29.68 1005 10 16.0934 0 0
7:55 pm 19:55 Sunny 87 30.5 58 14.5 38 38 S 14 22 29.69 1005 10 16.0934 0 0
8:15 pm 20:15 Sunny 86 29.9 57 13.9 38 38 S 16 26 29.7 1006 10 16.0934 0 0
8:35 pm 20:35 Sunny 84 29 57 13.7 39 39 S 16 26 29.72 1006 10 16.0934 0 0
8:55 pm 20:55 Sunny 82 28 57 13.8 42 42 S 16 26 29.73 1007 10 16.0934 0 0
9:15 pm 21:15 Clear 81 27.3 57 14.1 44 44 S 13 20 29.74 1007 10 16.0934 0 0
9:35 pm 21:35 Clear 80 26.9 57 13.8 45 45 S 17 28 29.75 1008 10 16.0934 0 0
9:55 pm 21:55 Clear 79 26.3 56 13.5 45 45 S 15 24 29.76 1008 10 16.0934 0 0
10:15 pm 22:15 Clear 78 25.5 56 13.5 47 47 S 15 24 29.79 1009 10 16.0934 0 0
10:35 pm 22:35 Clear 78 25.4 57 14.1 50 50 S 16 26 29.79 1009 10 16.0934 0 0
10:55 pm 22:55 Clear 76 24.4 58 14.5 54 54 S 15 24 29.8 1009 10 16.0934 0 0
11:15 pm 23:15 Clear 76 24.5 59 14.9 55 55 S 17 28 29.8 1009 10 16.0934 0 0
11:35 pm 23:35 Clear 75 24.1 59 15 57 57 SSW 17 28 29.81 1009 10 16.0934 0 0
11:55 pm 23:55 Clear 75 23.7 59 15 58 58 S 16 26 29.81 1010 10 16.0934 0 0

Powered by AerisWeather